Location: Boiro
(42.6475°N, 8.8834°W)
Time: 13:28:28
(UTC+01:00)

Vanguard 1 Rocket - Pass Details

Date: 04 December 2021
Orbit: 651 x 4224 km, 34.3° (Epoch: 21 January)

Event Time Altitude Azimuth Distance (km) Brightness Sun altitude
Exits shadow 02:33:20 18° 98° (E) 4,455 10.9 -65.2°
Drops below altitude 10° 02:37:50 10° 87° (E) 5,600 11.5 -64.7°
Sets 02:44:18 0° 79° (ENE) 7,251 12.3 -63.8°
